Time,TemperatureF,DewpointF,PressureIn,WindDirection,WindDirectionDegrees,WindSpeedMPH,WindSpeedGustMPH,Humidity,HourlyPrecipIn,Conditions,Clouds,dailyrainin,SoftwareType,DateUTC
2013-10-07 00:02:00,68.5,9.8,29.96,NNE,23,3.6,5.4,10,0.00,,,0.00,VWS V14.01,2013-10-07 07:02:00,
2013-10-07 00:07:00,68.7,10.0,29.96,NE,45,3.6,3.6,10,0.00,,,0.00,VWS V14.01,2013-10-07 07:07:00,
2013-10-07 00:12:00,68.7,10.0,29.96,North,0,4.0,4.9,10,0.00,,,0.00,VWS V14.01,2013-10-07 07:12:00,
2013-10-07 00:17:00,68.7,10.0,29.96,NNE,33,4.0,4.0,10,0.00,,,0.00,VWS V14.01,2013-10-07 07:17:00,
2013-10-07 00:22:00,68.5,9.8,29.96,NE,44,3.6,5.8,10,0.00,,,0.00,VWS V14.01,2013-10-07 07:22:00,
2013-10-07 00:27:00,68.4,9.7,29.96,NE,36,3.6,3.6,10,0.00,,,0.00,VWS V14.01,2013-10-07 07:27:00,
2013-10-07 00:32:00,68.4,9.7,29.96,NE,35,4.9,4.9,10,0.00,,,0.00,VWS V14.01,2013-10-07 07:32:00,
2013-10-07 00:37:00,68.2,9.6,29.96,NNE,23,5.8,5.8,10,0.00,,,0.00,VWS V14.01,2013-10-07 07:37:00,
2013-10-07 00:42:00,68.5,9.8,29.96,NE,49,5.4,5.4,10,0.00,,,0.00,VWS V14.01,2013-10-07 07:42:00,
2013-10-07 00:47:00,68.4,9.7,29.96,North,357,0.0,0.0,10,0.00,,,0.00,VWS V14.01,2013-10-07 07:47:00,
2013-10-07 00:52:00,68.0,9.4,29.96,NNE,23,0.0,2.7,10,0.00,,,0.00,VWS V14.01,2013-10-07 07:52:00,
2013-10-07 00:57:00,67.8,9.3,29.96,North,10,2.2,2.7,10,0.00,,,0.00,VWS V14.01,2013-10-07 07:57:00,
2013-10-07 01:02:00,67.5,9.0,29.96,NNE,32,3.6,3.6,10,0.00,,,0.00,VWS V14.01,2013-10-07 08:02:00,
2013-10-07 01:07:00,67.5,9.0,29.96,NE,36,2.2,4.0,10,0.00,,,0.00,VWS V14.01,2013-10-07 08:07:00,
2013-10-07 01:12:00,67.3,8.9,29.96,North,10,3.6,3.6,10,0.00,,,0.00,VWS V14.01,2013-10-07 08:12:00,
2013-10-07 01:17:00,67.3,8.9,29.96,NE,48,3.6,3.6,10,0.00,,,0.00,VWS V14.01,2013-10-07 08:17:00,
2013-10-07 01:22:00,67.5,9.0,29.96,NNE,32,5.4,5.4,10,0.00,,,0.00,VWS V14.01,2013-10-07 08:22:00,
2013-10-07 01:27:00,67.5,9.0,29.96,NE,34,3.6,3.6,10,0.00,,,0.00,VWS V14.01,2013-10-07 08:27:00,
2013-10-07 01:32:00,67.5,9.0,29.96,NNE,20,3.1,4.0,10,0.00,,,0.00,VWS V14.01,2013-10-07 08:32:00,
2013-10-07 01:37:00,67.5,9.0,29.93,NE,35,4.0,5.8,10,0.00,,,0.00,VWS V14.01,2013-10-07 08:37:00,
2013-10-07 01:42:00,67.5,9.0,29.93,NNE,32,3.1,4.0,10,0.00,,,0.00,VWS V14.01,2013-10-07 08:42:00,
2013-10-07 01:47:00,67.5,9.0,29.93,NE,36,2.7,4.0,10,0.00,,,0.00,VWS V14.01,2013-10-07 08:47:00,
2013-10-07 01:53:00,67.5,9.0,29.93,ENE,61,2.2,3.1,10,0.00,,,0.00,VWS V14.01,2013-10-07 08:53:00,
2013-10-07 01:58:00,67.6,9.1,29.93,NNE,32,2.7,4.5,10,0.00,,,0.00,VWS V14.01,2013-10-07 08:58:00,
2013-10-07 02:03:00,67.5,9.0,29.93,NNE,22,2.7,3.1,10,0.00,,,0.00,VWS V14.01,2013-10-07 09:03:00,
2013-10-07 02:08:00,67.3,8.9,29.93,NNE,20,0.0,0.0,10,0.00,,,0.00,VWS V14.01,2013-10-07 09:08:00,
2013-10-07 02:13:00,66.6,8.3,29.93,NNE,20,0.0,0.0,10,0.00,,,0.00,VWS V14.01,2013-10-07 09:13:00,
2013-10-07 02:18:00,66.4,8.2,29.93,NNE,21,2.7,5.4,10,0.00,,,0.00,VWS V14.01,2013-10-07 09:18:00,
2013-10-07 02:23:00,66.7,8.5,29.93,NE,38,3.6,5.4,10,0.00,,,0.00,VWS V14.01,2013-10-07 09:23:00,
2013-10-07 02:28:00,67.1,8.7,29.93,North,353,4.0,4.0,10,0.00,,,0.00,VWS V14.01,2013-10-07 09:28:00,
2013-10-07 02:33:00,67.5,9.0,29.93,ENE,59,4.9,4.9,10,0.00,,,0.00,VWS V14.01,2013-10-07 09:33:00,
2013-10-07 02:38:00,67.5,9.0,29.90,NE,51,3.6,5.8,10,0.00,,,0.00,VWS V14.01,2013-10-07 09:38:00,
2013-10-07 02:43:00,67.5,9.0,29.90,NE,38,3.1,3.1,10,0.00,,,0.00,VWS V14.01,2013-10-07 09:43:00,
2013-10-07 02:48:00,67.3,8.9,29.90,NNE,18,3.1,3.1,10,0.00,,,0.00,VWS V14.01,2013-10-07 09:48:00,
2013-10-07 02:53:00,67.5,9.0,29.93,NE,36,2.7,2.7,10,0.00,,,0.00,VWS V14.01,2013-10-07 09:53:00,
2013-10-07 02:58:00,67.5,9.0,29.93,ENE,72,3.6,3.6,10,0.00,,,0.00,VWS V14.01,2013-10-07 09:58:00,
2013-10-07 03:03:00,67.5,9.0,29.93,NNE,21,4.0,4.0,10,0.00,,,0.00,VWS V14.01,2013-10-07 10:03:00,
2013-10-07 03:08:00,67.6,9.1,29.93,NE,38,0.0,0.0,10,0.00,,,0.00,VWS V14.01,2013-10-07 10:08:00,
2013-10-07 03:13:00,67.3,8.9,29.93,ESE,122,0.0,0.0,10,0.00,,,0.00,VWS V14.01,2013-10-07 10:13:00,
2013-10-07 03:18:00,66.9,8.6,29.93,SW,226,0.0,0.0,10,0.00,,,0.00,VWS V14.01,2013-10-07 10:18:00,
2013-10-07 03:23:00,66.6,8.3,29.93,SW,226,0.0,0.0,10,0.00,,,0.00,VWS V14.01,2013-10-07 10:23:00,
2013-10-07 03:28:00,65.5,7.5,29.93,ESE,118,0.0,0.0,10,0.00,,,0.00,VWS V14.01,2013-10-07 10:28:00,
2013-10-07 03:33:00,64.4,6.7,29.93,ESE,105,0.0,0.0,10,0.00,,,0.00,VWS V14.01,2013-10-07 10:33:00,
2013-10-07 03:38:00,63.5,8.1,29.93,ESE,105,0.0,0.0,11,0.00,,,0.00,VWS V14.01,2013-10-07 10:38:00,
2013-10-07 03:43:00,62.8,7.5,29.93,ESE,105,0.0,0.0,11,0.00,,,0.00,VWS V14.01,2013-10-07 10:43:00,
2013-10-07 03:48:00,62.2,7.1,29.93,ESE,105,0.0,0.0,11,0.00,,,0.00,VWS V14.01,2013-10-07 10:48:00,
2013-10-07 03:53:00,61.9,6.8,29.90,East,93,0.0,0.0,11,0.00,,,0.00,VWS V14.01,2013-10-07 10:53:00,
2013-10-07 03:58:00,61.9,6.8,29.90,East,83,0.0,0.0,11,0.00,,,0.00,VWS V14.01,2013-10-07 10:58:00,
2013-10-07 04:03:00,62.6,7.4,29.90,East,81,0.0,0.0,11,0.00,,,0.00,VWS V14.01,2013-10-07 11:03:00,
2013-10-07 04:08:00,62.8,7.5,29.90,SE,135,2.7,2.7,11,0.00,,,0.00,VWS V14.01,2013-10-07 11:08:00,
2013-10-07 04:13:00,62.8,7.5,29.90,East,83,0.0,0.0,11,0.00,,,0.00,VWS V14.01,2013-10-07 11:13:00,
2013-10-07 04:18:00,63.0,7.7,29.90,East,81,0.0,0.0,11,0.00,,,0.00,VWS V14.01,2013-10-07 11:18:00,
2013-10-07 04:23:00,63.0,7.7,29.90,NE,51,0.0,0.0,11,0.00,,,0.00,VWS V14.01,2013-10-07 11:23:00,
2013-10-07 04:28:00,63.0,7.7,29.90,ENE,57,0.0,0.0,11,0.00,,,0.00,VWS V14.01,2013-10-07 11:28:00,
2013-10-07 04:33:00,62.8,7.5,29.90,ENE,58,0.0,0.0,11,0.00,,,0.00,VWS V14.01,2013-10-07 11:33:00,
2013-10-07 04:38:00,62.4,7.2,29.90,ENE,58,0.0,0.0,11,0.00,,,0.00,VWS V14.01,2013-10-07 11:38:00,
2013-10-07 04:43:00,62.1,7.0,29.90,ENE,58,0.0,0.0,11,0.00,,,0.00,VWS V14.01,2013-10-07 11:43:00,
2013-10-07 04:48:00,61.9,6.8,29.90,ENE,58,0.0,0.0,11,0.00,,,0.00,VWS V14.01,2013-10-07 11:48:00,
2013-10-07 04:53:00,61.7,6.7,29.90,ENE,58,0.0,0.0,11,0.00,,,0.00,VWS V14.01,2013-10-07 11:53:00,
2013-10-07 04:58:00,61.5,6.5,29.90,ENE,58,0.0,0.0,11,0.00,,,0.00,VWS V14.01,2013-10-07 11:58:00,
2013-10-07 05:03:00,61.0,6.1,29.90,ENE,58,0.0,0.0,11,0.00,,,0.00,VWS V14.01,2013-10-07 12:03:00,
2013-10-07 05:08:00,60.8,6.0,29.90,ENE,58,0.0,0.0,11,0.00,,,0.00,VWS V14.01,2013-10-07 12:08:00,
2013-10-07 05:13:00,60.6,7.8,29.90,ENE,58,0.0,0.0,12,0.00,,,0.00,VWS V14.01,2013-10-07 12:13:00,
2013-10-07 05:18:00,60.3,7.5,29.90,ENE,58,0.0,0.0,12,0.00,,,0.00,VWS V14.01,2013-10-07 12:18:00,
2013-10-07 05:23:00,59.9,7.2,29.90,ENE,58,0.0,0.0,12,0.00,,,0.00,VWS V14.01,2013-10-07 12:23:00,
2013-10-07 05:28:00,60.3,7.5,29.90,ENE,58,0.0,0.0,12,0.00,,,0.00,VWS V14.01,2013-10-07 12:28:00,
2013-10-07 05:33:00,60.6,7.8,29.90,ENE,58,0.0,0.0,12,0.00,,,0.00,VWS V14.01,2013-10-07 12:33:00,
2013-10-07 05:38:00,60.6,7.8,29.90,ENE,58,0.0,0.0,12,0.00,,,0.00,VWS V14.01,2013-10-07 12:38:00,
2013-10-07 05:43:00,60.3,7.5,29.90,East,82,3.6,3.6,12,0.00,,,0.00,VWS V14.01,2013-10-07 12:43:00,
2013-10-07 05:48:00,60.4,7.6,29.90,East,83,3.1,3.6,12,0.00,,,0.00,VWS V14.01,2013-10-07 12:48:00,
2013-10-07 05:53:00,60.1,7.3,29.90,East,83,2.2,2.2,12,0.00,,,0.00,VWS V14.01,2013-10-07 12:53:00,
2013-10-07 05:58:00,59.9,7.2,29.90,East,83,0.0,0.0,12,0.00,,,0.00,VWS V14.01,2013-10-07 12:58:00,
2013-10-07 06:03:00,60.3,7.5,29.90,East,83,0.0,0.0,12,0.00,,,0.00,VWS V14.01,2013-10-07 13:03:00,
2013-10-07 06:08:00,60.6,7.8,29.90,East,83,0.0,0.0,12,0.00,,,0.00,VWS V14.01,2013-10-07 13:08:00,
2013-10-07 06:13:00,61.0,6.1,29.90,East,83,0.0,0.0,11,0.00,,,0.00,VWS V14.01,2013-10-07 13:13:00,
2013-10-07 06:18:00,61.0,6.1,29.90,East,85,3.1,3.6,11,0.00,,,0.00,VWS V14.01,2013-10-07 13:18:00,
2013-10-07 06:23:00,61.2,6.3,29.90,East,85,2.7,2.7,11,0.00,,,0.00,VWS V14.01,2013-10-07 13:23:00,
2013-10-07 06:28:00,61.5,6.5,29.90,East,85,0.0,2.2,11,0.00,,,0.00,VWS V14.01,2013-10-07 13:28:00,
2013-10-07 06:33:00,61.5,6.5,29.90,East,86,0.0,0.0,11,0.00,,,0.00,VWS V14.01,2013-10-07 13:33:00,
2013-10-07 06:38:00,61.2,6.3,29.90,East,85,0.0,0.0,11,0.00,,,0.00,VWS V14.01,2013-10-07 13:38:00,
2013-10-07 06:43:00,61.3,6.4,29.90,East,85,0.0,0.0,11,0.00,,,0.00,VWS V14.01,2013-10-07 13:43:00,
2013-10-07 06:48:00,61.0,6.1,29.90,East,85,0.0,0.0,11,0.00,,,0.00,VWS V14.01,2013-10-07 13:48:00,
2013-10-07 06:53:00,60.6,7.8,29.90,East,85,0.0,0.0,12,0.00,,,0.00,VWS V14.01,2013-10-07 13:53:00,
2013-10-07 06:59:00,60.3,7.5,29.90,East,85,0.0,0.0,12,0.00,,,0.00,VWS V14.01,2013-10-07 13:59:00,
2013-10-07 07:04:00,59.9,7.2,29.90,East,86,0.0,0.0,12,0.00,,,0.00,VWS V14.01,2013-10-07 14:04:00,
2013-10-07 07:09:00,59.7,7.0,29.90,East,85,0.0,0.0,12,0.00,,,0.00,VWS V14.01,2013-10-07 14:09:00,
2013-10-07 07:13:00,59.4,6.8,29.90,East,85,0.0,0.0,12,0.00,,,0.00,VWS V14.01,2013-10-07 14:13:00,
2013-10-07 07:18:00,59.5,6.9,29.90,East,85,0.0,0.0,12,0.00,,,0.00,VWS V14.01,2013-10-07 14:18:00,
2013-10-07 07:23:00,59.4,6.8,29.90,East,85,0.0,0.0,12,0.00,,,0.00,VWS V14.01,2013-10-07 14:23:00,
2013-10-07 07:29:00,59.2,6.6,29.90,East,85,0.0,0.0,12,0.00,,,0.00,VWS V14.01,2013-10-07 14:29:00,
2013-10-07 07:34:00,58.6,6.2,29.90,East,85,0.0,0.0,12,0.00,,,0.00,VWS V14.01,2013-10-07 14:34:00,
2013-10-07 07:38:00,58.5,6.1,29.90,East,86,0.0,0.0,12,0.00,,,0.00,VWS V14.01,2013-10-07 14:38:00,
2013-10-07 07:43:00,58.3,5.9,29.90,East,85,0.0,0.0,12,0.00,,,0.00,VWS V14.01,2013-10-07 14:43:00,
2013-10-07 07:49:00,58.1,5.8,29.90,East,85,0.0,0.0,12,0.00,,,0.00,VWS V14.01,2013-10-07 14:49:00,
2013-10-07 07:54:00,58.1,5.8,29.93,East,85,0.0,0.0,12,0.00,,,0.00,VWS V14.01,2013-10-07 14:54:00,
2013-10-07 07:58:00,58.1,5.8,29.93,East,85,0.0,0.0,12,0.00,,,0.00,VWS V14.01,2013-10-07 14:58:00,
2013-10-07 08:03:00,58.1,5.8,29.93,East,85,0.0,0.0,12,0.00,,,0.00,VWS V14.01,2013-10-07 15:03:00,
2013-10-07 08:09:00,58.3,5.9,29.93,East,85,0.0,0.0,12,0.00,,,0.00,VWS V14.01,2013-10-07 15:09:00,
2013-10-07 08:14:00,59.0,6.5,29.93,East,85,0.0,0.0,12,0.00,,,0.00,VWS V14.01,2013-10-07 15:14:00,
2013-10-07 08:19:00,59.9,7.2,29.93,East,85,0.0,0.0,12,0.00,,,0.00,VWS V14.01,2013-10-07 15:19:00,
2013-10-07 08:24:00,60.6,7.8,29.93,East,86,0.0,0.0,12,0.00,,,0.00,VWS V14.01,2013-10-07 15:24:00,
2013-10-07 08:29:00,61.3,6.4,29.93,East,85,0.0,0.0,11,0.00,,,0.00,VWS V14.01,2013-10-07 15:29:00,
2013-10-07 08:34:00,61.7,6.7,29.93,East,85,0.0,0.0,11,0.00,,,0.00,VWS V14.01,2013-10-07 15:34:00,
2013-10-07 08:39:00,62.6,7.4,29.93,East,85,0.0,0.0,11,0.00,,,0.00,VWS V14.01,2013-10-07 15:39:00,
2013-10-07 08:44:00,63.3,7.9,29.93,East,85,0.0,0.0,11,0.00,,,0.00,VWS V14.01,2013-10-07 15:44:00,
2013-10-07 08:49:00,64.4,6.7,29.93,East,85,0.0,0.0,10,0.00,,,0.00,VWS V14.01,2013-10-07 15:49:00,
2013-10-07 08:54:00,65.1,7.2,29.93,East,85,0.0,0.0,10,0.00,,,0.00,VWS V14.01,2013-10-07 15:54:00,
2013-10-07 08:59:00,66.2,8.1,29.93,East,85,0.0,0.0,10,0.00,,,0.00,VWS V14.01,2013-10-07 15:59:00,
2013-10-07 09:04:00,67.1,8.7,29.93,East,85,0.0,0.0,10,0.00,,,0.00,VWS V14.01,2013-10-07 16:04:00,
2013-10-07 09:09:00,67.3,8.9,29.93,East,85,0.0,0.0,10,0.00,,,0.00,VWS V14.01,2013-10-07 16:09:00,
2013-10-07 09:14:00,67.5,9.0,29.93,East,86,0.0,0.0,10,0.00,,,0.00,VWS V14.01,2013-10-07 16:14:00,
2013-10-07 09:19:00,67.6,9.1,29.93,East,85,0.0,0.0,10,0.00,,,0.00,VWS V14.01,2013-10-07 16:19:00,
2013-10-07 09:24:00,67.6,9.1,29.93,East,85,0.0,0.0,10,0.00,,,0.00,VWS V14.01,2013-10-07 16:24:00,
2013-10-07 09:29:00,67.8,9.3,29.93,East,86,0.0,0.0,10,0.00,,,0.00,VWS V14.01,2013-10-07 16:29:00,
2013-10-07 09:34:00,68.0,9.4,29.93,East,85,0.0,0.0,10,0.00,,,0.00,VWS V14.01,2013-10-07 16:34:00,
2013-10-07 09:39:00,68.0,9.4,29.93,SSW,213,0.0,0.0,10,0.00,,,0.00,VWS V14.01,2013-10-07 16:39:00,
2013-10-07 09:44:00,68.0,9.4,29.93,West,269,0.0,0.0,10,0.00,,,0.00,VWS V14.01,2013-10-07 16:44:00,
2013-10-07 09:49:00,68.0,9.4,29.93,West,268,0.0,0.0,10,0.00,,,0.00,VWS V14.01,2013-10-07 16:49:00,
2013-10-07 09:54:00,67.8,9.3,29.93,WSW,250,0.0,0.0,10,0.00,,,0.00,VWS V14.01,2013-10-07 16:54:00,
2013-10-07 09:59:00,68.2,9.6,29.93,South,181,0.0,0.0,10,0.00,,,0.00,VWS V14.01,2013-10-07 16:59:00,
2013-10-07 10:04:00,68.5,9.8,29.93,West,279,2.2,2.7,10,0.00,,,0.00,VWS V14.01,2013-10-07 17:04:00,
2013-10-07 10:09:00,68.7,10.0,29.93,West,279,0.0,0.0,10,0.00,,,0.00,VWS V14.01,2013-10-07 17:09:00,
2013-10-07 10:14:00,69.1,10.3,29.93,ESE,102,0.0,0.0,10,0.00,,,0.00,VWS V14.01,2013-10-07 17:14:00,
2013-10-07 10:19:00,69.6,10.7,29.93,SSW,212,0.0,0.0,10,0.00,,,0.00,VWS V14.01,2013-10-07 17:19:00,
2013-10-07 10:24:00,70.5,9.0,29.93,South,171,2.2,2.7,9,0.00,,,0.00,VWS V14.01,2013-10-07 17:24:00,
2013-10-07 10:29:00,70.9,9.3,29.93,SW,223,0.0,0.0,9,0.00,,,0.00,VWS V14.01,2013-10-07 17:29:00,
2013-10-07 10:34:00,71.2,9.6,29.93,WSW,240,2.7,3.1,9,0.00,,,0.00,VWS V14.01,2013-10-07 17:34:00,
2013-10-07 10:39:00,71.2,9.6,29.93,South,178,0.0,0.0,9,0.00,,,0.00,VWS V14.01,2013-10-07 17:39:00,
2013-10-07 10:44:00,71.4,9.7,29.93,South,171,0.0,0.0,9,0.00,,,0.00,VWS V14.01,2013-10-07 17:44:00,
2013-10-07 10:49:00,71.8,10.0,29.93,SW,221,0.0,0.0,9,0.00,,,0.00,VWS V14.01,2013-10-07 17:49:00,
2013-10-07 10:54:00,72.3,10.4,29.93,SSE,167,0.0,0.0,9,0.00,,,0.00,VWS V14.01,2013-10-07 17:54:00,
2013-10-07 10:59:00,72.7,10.6,29.93,SE,141,2.7,2.7,9,0.00,,,0.00,VWS V14.01,2013-10-07 17:59:00,
2013-10-07 11:04:00,73.2,11.1,29.93,West,263,3.1,3.6,9,0.00,,,0.00,VWS V14.01,2013-10-07 18:04:00,
2013-10-07 11:09:00,73.0,10.9,29.93,SSW,197,0.0,3.1,9,0.00,,,0.00,VWS V14.01,2013-10-07 18:09:00,
2013-10-07 11:14:00,73.2,11.1,29.93,SW,222,2.2,3.1,9,0.00,,,0.00,VWS V14.01,2013-10-07 18:14:00,
2013-10-07 11:19:00,73.0,10.9,29.93,WSW,240,3.1,3.1,9,0.00,,,0.00,VWS V14.01,2013-10-07 18:19:00,
2013-10-07 11:24:00,72.9,10.8,29.93,SSW,208,0.0,2.2,9,0.00,,,0.00,VWS V14.01,2013-10-07 18:24:00,
2013-10-07 11:29:00,72.7,10.6,29.93,South,184,0.0,0.0,9,0.00,,,0.00,VWS V14.01,2013-10-07 18:29:00,
2013-10-07 11:34:00,73.2,11.1,29.93,SSW,213,2.7,2.7,9,0.00,,,0.00,VWS V14.01,2013-10-07 18:34:00,
2013-10-07 11:39:00,73.8,8.8,29.93,WSW,239,4.0,4.0,8,0.00,,,0.00,VWS V14.01,2013-10-07 18:39:00,
2013-10-07 11:44:00,74.5,9.4,29.93,WSW,243,5.4,5.4,8,0.00,,,0.00,VWS V14.01,2013-10-07 18:44:00,
2013-10-07 11:49:00,74.5,9.4,29.93,WSW,249,3.1,3.1,8,0.00,,,0.00,VWS V14.01,2013-10-07 18:49:00,
2013-10-07 11:54:00,74.5,9.4,29.93,SW,230,3.6,3.6,8,0.00,,,0.00,VWS V14.01,2013-10-07 18:54:00,
2013-10-07 11:59:00,74.7,9.5,29.93,West,265,3.1,4.5,8,0.00,,,0.00,VWS V14.01,2013-10-07 18:59:00,
2013-10-07 12:04:00,74.1,9.1,29.93,SW,214,3.1,4.0,8,0.00,,,0.00,VWS V14.01,2013-10-07 19:04:00,
2013-10-07 12:09:00,74.3,9.2,29.90,WSW,237,2.7,3.6,8,0.00,,,0.00,VWS V14.01,2013-10-07 19:09:00,
2013-10-07 12:14:00,74.3,9.2,29.90,SW,217,3.1,4.9,8,0.00,,,0.00,VWS V14.01,2013-10-07 19:14:00,
2013-10-07 12:19:00,74.5,9.4,29.90,WSW,241,2.2,2.2,8,0.00,,,0.00,VWS V14.01,2013-10-07 19:19:00,
2013-10-07 12:24:00,75.0,9.8,29.93,SW,219,2.7,4.9,8,0.00,,,0.00,VWS V14.01,2013-10-07 19:24:00,
2013-10-07 12:29:00,75.4,10.0,29.93,South,187,3.1,3.1,8,0.00,,,0.00,VWS V14.01,2013-10-07 19:29:00,
2013-10-07 12:34:00,75.2,9.9,29.93,SSW,213,3.1,3.6,8,0.00,,,0.00,VWS V14.01,2013-10-07 19:34:00,
2013-10-07 12:39:00,75.2,9.9,29.90,WSW,238,2.2,3.1,8,0.00,,,0.00,VWS V14.01,2013-10-07 19:39:00,
2013-10-07 12:44:00,74.8,9.6,29.90,SSW,202,2.7,2.7,8,0.00,,,0.00,VWS V14.01,2013-10-07 19:44:00,
2013-10-07 12:49:00,75.0,9.8,29.90,SW,230,3.6,3.6,8,0.00,,,0.00,VWS V14.01,2013-10-07 19:49:00,
2013-10-07 12:54:00,75.6,10.2,29.90,SW,231,0.0,5.8,8,0.00,,,0.00,VWS V14.01,2013-10-07 19:54:00,
2013-10-07 12:59:00,75.7,10.3,29.90,West,268,4.9,4.9,8,0.00,,,0.00,VWS V14.01,2013-10-07 19:59:00,
2013-10-07 13:04:00,75.7,10.3,29.90,SW,220,3.6,4.9,8,0.00,,,0.00,VWS V14.01,2013-10-07 20:04:00,
2013-10-07 13:09:00,75.6,10.2,29.90,West,259,2.7,2.7,8,0.00,,,0.00,VWS V14.01,2013-10-07 20:09:00,
2013-10-07 13:14:00,75.2,9.9,29.90,SW,219,3.6,4.5,8,0.00,,,0.00,VWS V14.01,2013-10-07 20:14:00,
2013-10-07 13:19:00,74.8,9.6,29.90,SW,226,3.6,3.6,8,0.00,,,0.00,VWS V14.01,2013-10-07 20:19:00,
2013-10-07 13:24:00,74.7,9.5,29.90,WSW,243,4.0,4.9,8,0.00,,,0.00,VWS V14.01,2013-10-07 20:24:00,
2013-10-07 13:29:00,74.7,9.5,29.90,SSW,208,2.7,3.6,8,0.00,,,0.00,VWS V14.01,2013-10-07 20:29:00,
2013-10-07 13:34:00,74.7,9.5,29.90,SW,233,3.1,4.0,8,0.00,,,0.00,VWS V14.01,2013-10-07 20:34:00,
2013-10-07 13:39:00,74.5,9.4,29.90,WSW,247,3.6,4.9,8,0.00,,,0.00,VWS V14.01,2013-10-07 20:39:00,
2013-10-07 13:44:00,74.3,9.2,29.90,SSW,205,4.0,4.0,8,0.00,,,0.00,VWS V14.01,2013-10-07 20:44:00,
2013-10-07 13:49:00,74.1,9.1,29.90,SW,216,2.7,4.9,8,0.00,,,0.00,VWS V14.01,2013-10-07 20:49:00,
2013-10-07 13:54:00,74.5,9.4,29.90,SSW,198,2.7,4.5,8,0.00,,,0.00,VWS V14.01,2013-10-07 20:54:00,
2013-10-07 13:59:00,74.5,9.4,29.90,South,191,3.1,4.9,8,0.00,,,0.00,VWS V14.01,2013-10-07 20:59:00,
2013-10-07 14:04:00,74.5,9.4,29.90,SW,236,2.7,4.0,8,0.00,,,0.00,VWS V14.01,2013-10-07 21:04:00,
2013-10-07 14:09:00,74.5,9.4,29.90,SW,229,3.1,3.6,8,0.00,,,0.00,VWS V14.01,2013-10-07 21:09:00,
2013-10-07 14:14:00,75.0,9.8,29.90,SSE,153,2.7,4.0,8,0.00,,,0.00,VWS V14.01,2013-10-07 21:14:00,
2013-10-07 14:19:00,75.6,10.2,29.90,WSW,247,4.9,4.9,8,0.00,,,0.00,VWS V14.01,2013-10-07 21:19:00,
2013-10-07 14:24:00,76.1,10.6,29.87,SW,230,3.6,4.9,8,0.00,,,0.00,VWS V14.01,2013-10-07 21:24:00,
2013-10-07 14:29:00,76.3,10.7,29.87,SSW,195,3.1,3.6,8,0.00,,,0.00,VWS V14.01,2013-10-07 21:29:00,
2013-10-07 14:34:00,76.1,10.6,29.87,South,170,2.7,3.1,8,0.00,,,0.00,VWS V14.01,2013-10-07 21:34:00,
2013-10-07 14:39:00,75.6,10.2,29.87,SSW,197,3.1,5.4,8,0.00,,,0.00,VWS V14.01,2013-10-07 21:39:00,
2013-10-07 14:44:00,75.6,10.2,29.87,WSW,245,4.0,4.0,8,0.00,,,0.00,VWS V14.01,2013-10-07 21:44:00,
2013-10-07 14:49:00,75.6,10.2,29.87,SW,230,4.0,4.9,8,0.00,,,0.00,VWS V14.01,2013-10-07 21:49:00,
2013-10-07 14:54:00,75.0,9.8,29.87,SW,231,5.4,6.3,8,0.00,,,0.00,VWS V14.01,2013-10-07 21:54:00,
2013-10-07 14:59:00,74.8,9.6,29.87,SSW,205,4.9,4.9,8,0.00,,,0.00,VWS V14.01,2013-10-07 21:59:00,
2013-10-07 15:04:00,75.0,9.8,29.87,SSW,197,3.6,3.6,8,0.00,,,0.00,VWS V14.01,2013-10-07 22:04:00,
2013-10-07 15:09:00,75.4,10.0,29.87,SW,218,4.0,4.0,8,0.00,,,0.00,VWS V14.01,2013-10-07 22:09:00,
2013-10-07 15:14:00,75.6,10.2,29.87,SSW,204,3.1,3.6,8,0.00,,,0.00,VWS V14.01,2013-10-07 22:14:00,
2013-10-07 15:19:00,75.7,10.3,29.87,SSW,198,3.6,3.6,8,0.00,,,0.00,VWS V14.01,2013-10-07 22:19:00,
2013-10-07 15:24:00,75.6,10.2,29.87,WSW,240,4.0,5.8,8,0.00,,,0.00,VWS V14.01,2013-10-07 22:24:00,
2013-10-07 15:29:00,75.0,9.8,29.87,WSW,237,4.0,4.0,8,0.00,,,0.00,VWS V14.01,2013-10-07 22:29:00,
2013-10-07 15:34:00,75.0,9.8,29.87,WSW,246,3.1,4.0,8,0.00,,,0.00,VWS V14.01,2013-10-07 22:34:00,
2013-10-07 15:39:00,74.7,9.5,29.87,South,174,4.0,4.9,8,0.00,,,0.00,VWS V14.01,2013-10-07 22:39:00,
2013-10-07 15:44:00,74.3,9.2,29.87,SSW,206,3.6,3.6,8,0.00,,,0.00,VWS V14.01,2013-10-07 22:44:00,
2013-10-07 15:49:00,74.3,9.2,29.87,SSW,204,3.1,3.6,8,0.00,,,0.00,VWS V14.01,2013-10-07 22:49:00,
2013-10-07 15:54:00,74.3,9.2,29.87,SSW,204,3.1,4.0,8,0.00,,,0.00,VWS V14.01,2013-10-07 22:54:00,
2013-10-07 15:59:00,74.1,9.1,29.87,East,99,4.0,4.0,8,0.00,,,0.00,VWS V14.01,2013-10-07 22:59:00,
2013-10-07 16:04:00,73.4,8.6,29.87,SSW,197,3.6,3.6,8,0.00,,,0.00,VWS V14.01,2013-10-07 23:04:00,
2013-10-07 16:09:00,72.7,10.6,29.87,SE,143,3.1,3.6,9,0.00,,,0.00,VWS V14.01,2013-10-07 23:09:00,
2013-10-07 16:14:00,72.7,10.6,29.87,SW,226,3.1,6.3,9,0.00,,,0.00,VWS V14.01,2013-10-07 23:14:00,
2013-10-07 16:19:00,72.9,10.8,29.87,SSW,208,2.7,4.0,9,0.00,,,0.00,VWS V14.01,2013-10-07 23:19:00,
2013-10-07 16:24:00,72.9,10.8,29.87,SSE,165,3.6,4.0,9,0.00,,,0.00,VWS V14.01,2013-10-07 23:24:00,
2013-10-07 16:29:00,72.5,10.5,29.87,SW,230,0.0,2.7,9,0.00,,,0.00,VWS V14.01,2013-10-07 23:29:00,
2013-10-07 16:34:00,72.3,10.4,29.87,SSW,211,2.7,6.3,9,0.00,,,0.00,VWS V14.01,2013-10-07 23:34:00,
2013-10-07 16:39:00,72.3,10.4,29.87,SW,217,3.6,5.8,9,0.00,,,0.00,VWS V14.01,2013-10-07 23:39:00,
2013-10-07 16:44:00,72.0,10.1,29.87,SW,216,6.3,6.3,9,0.00,,,0.00,VWS V14.01,2013-10-07 23:44:00,
2013-10-07 16:49:00,71.2,9.6,29.87,SSW,213,2.7,4.0,9,0.00,,,0.00,VWS V14.01,2013-10-07 23:49:00,
2013-10-07 16:54:00,70.7,9.1,29.84,SSW,205,2.7,3.6,9,0.00,,,0.00,VWS V14.01,2013-10-07 23:54:00,
2013-10-07 16:59:00,69.6,10.7,29.84,SSW,197,4.0,4.0,10,0.00,,,0.00,VWS V14.01,2013-10-07 23:59:00,
2013-10-07 17:04:00,68.5,9.8,29.84,SW,225,2.7,2.7,10,0.00,,,0.00,VWS V14.01,2013-10-08 00:04:00,
2013-10-07 17:09:00,68.4,9.7,29.84,SSW,207,4.0,4.0,10,0.00,,,0.00,VWS V14.01,2013-10-08 00:09:00,
2013-10-07 17:14:00,68.4,9.7,29.84,West,265,4.0,4.0,10,0.00,,,0.00,VWS V14.01,2013-10-08 00:14:00,
2013-10-07 17:19:00,68.0,9.4,29.84,SSW,197,3.1,4.0,10,0.00,,,0.00,VWS V14.01,2013-10-08 00:19:00,
2013-10-07 17:24:00,67.6,9.1,29.84,SW,233,3.1,3.1,10,0.00,,,0.00,VWS V14.01,2013-10-08 00:24:00,
2013-10-07 17:29:00,67.3,8.9,29.84,SSW,209,2.2,4.0,10,0.00,,,0.00,VWS V14.01,2013-10-08 00:29:00,
2013-10-07 17:34:00,67.5,9.0,29.84,SW,226,3.1,3.1,10,0.00,,,0.00,VWS V14.01,2013-10-08 00:34:00,
2013-10-07 17:39:00,67.6,9.1,29.84,SSW,209,2.7,3.1,10,0.00,,,0.00,VWS V14.01,2013-10-08 00:39:00,
2013-10-07 17:44:00,67.8,9.3,29.84,SSE,159,0.0,2.2,10,0.00,,,0.00,VWS V14.01,2013-10-08 00:44:00,
2013-10-07 17:49:00,68.0,9.4,29.84,SW,231,2.2,2.7,10,0.00,,,0.00,VWS V14.01,2013-10-08 00:49:00,
2013-10-07 17:54:00,68.0,9.4,29.84,SW,224,3.1,3.6,10,0.00,,,0.00,VWS V14.01,2013-10-08 00:54:00,
2013-10-07 17:59:00,67.8,9.3,29.84,SW,232,3.6,3.6,10,0.00,,,0.00,VWS V14.01,2013-10-08 00:59:00,
2013-10-07 18:04:00,67.5,9.0,29.84,West,261,0.0,3.1,10,0.00,,,0.00,VWS V14.01,2013-10-08 01:04:00,
2013-10-07 18:09:00,67.1,8.7,29.84,SSW,213,2.2,2.7,10,0.00,,,0.00,VWS V14.01,2013-10-08 01:09:00,
2013-10-07 18:14:00,66.6,8.3,29.84,SW,217,0.0,0.0,10,0.00,,,0.00,VWS V14.01,2013-10-08 01:14:00,
2013-10-07 18:19:00,66.2,8.1,29.84,SW,219,0.0,0.0,10,0.00,,,0.00,VWS V14.01,2013-10-08 01:19:00,
2013-10-07 18:24:00,65.5,7.5,29.84,SSW,210,2.7,2.7,10,0.00,,,0.00,VWS V14.01,2013-10-08 01:24:00,
2013-10-07 18:29:00,64.8,6.9,29.84,SSW,200,2.7,2.7,10,0.00,,,0.00,VWS V14.01,2013-10-08 01:29:00,
2013-10-07 18:34:00,64.2,8.6,29.84,WSW,257,2.7,3.1,11,0.00,,,0.00,VWS V14.01,2013-10-08 01:34:00,
2013-10-07 18:39:00,63.1,7.8,29.84,SSW,213,2.7,2.7,11,0.00,,,0.00,VWS V14.01,2013-10-08 01:39:00,
2013-10-07 18:44:00,62.6,7.4,29.84,SSW,194,0.0,0.0,11,0.00,,,0.00,VWS V14.01,2013-10-08 01:44:00,
2013-10-07 18:49:00,62.1,7.0,29.84,SW,219,0.0,0.0,11,0.00,,,0.00,VWS V14.01,2013-10-08 01:49:00,
2013-10-07 18:54:00,61.7,6.7,29.84,SSW,211,0.0,0.0,11,0.00,,,0.00,VWS V14.01,2013-10-08 01:54:00,
2013-10-07 18:59:00,61.3,6.4,29.84,SW,226,0.0,0.0,11,0.00,,,0.00,VWS V14.01,2013-10-08 01:59:00,
2013-10-07 19:04:00,61.0,6.1,29.84,SW,226,0.0,0.0,11,0.00,,,0.00,VWS V14.01,2013-10-08 02:04:00,
2013-10-07 19:09:00,60.6,7.8,29.84,SW,226,0.0,0.0,12,0.00,,,0.00,VWS V14.01,2013-10-08 02:09:00,
2013-10-07 19:14:00,60.3,7.5,29.84,WSW,248,0.0,0.0,12,0.00,,,0.00,VWS V14.01,2013-10-08 02:14:00,
2013-10-07 19:19:00,60.1,7.3,29.84,WSW,248,0.0,0.0,12,0.00,,,0.00,VWS V14.01,2013-10-08 02:19:00,
2013-10-07 19:24:00,60.1,7.3,29.84,SW,218,0.0,0.0,12,0.00,,,0.00,VWS V14.01,2013-10-08 02:24:00,
2013-10-07 19:29:00,60.1,10.8,29.84,SSW,195,0.0,0.0,14,0.00,,,0.00,VWS V14.01,2013-10-08 02:29:00,
2013-10-07 19:34:00,59.9,10.6,29.84,SW,218,2.7,2.7,14,0.00,,,0.00,VWS V14.01,2013-10-08 02:34:00,
2013-10-07 19:39:00,59.9,10.6,29.84,SSE,167,2.7,3.1,14,0.00,,,0.00,VWS V14.01,2013-10-08 02:39:00,
2013-10-07 19:44:00,59.9,10.6,29.84,East,85,0.0,0.0,14,0.00,,,0.00,VWS V14.01,2013-10-08 02:44:00,
2013-10-07 19:49:00,59.9,10.6,29.84,South,169,0.0,0.0,14,0.00,,,0.00,VWS V14.01,2013-10-08 02:49:00,
2013-10-07 19:54:00,59.7,10.5,29.84,SSE,156,0.0,0.0,14,0.00,,,0.00,VWS V14.01,2013-10-08 02:54:00,
2013-10-07 19:59:00,59.9,10.6,29.84,SSE,156,0.0,0.0,14,0.00,,,0.00,VWS V14.01,2013-10-08 02:59:00,
2013-10-07 20:04:00,59.9,7.2,29.84,SSE,156,0.0,0.0,12,0.00,,,0.00,VWS V14.01,2013-10-08 03:04:00,
2013-10-07 20:09:00,60.1,7.3,29.84,SSE,156,0.0,0.0,12,0.00,,,0.00,VWS V14.01,2013-10-08 03:09:00,
2013-10-07 20:14:00,60.1,7.3,29.84,SSE,156,0.0,0.0,12,0.00,,,0.00,VWS V14.01,2013-10-08 03:14:00,
2013-10-07 20:19:00,59.7,7.0,29.84,SSE,156,0.0,0.0,12,0.00,,,0.00,VWS V14.01,2013-10-08 03:19:00,
2013-10-07 20:24:00,59.5,6.9,29.84,SSE,156,0.0,2.2,12,0.00,,,0.00,VWS V14.01,2013-10-08 03:24:00,
2013-10-07 20:29:00,59.4,6.8,29.84,SSE,156,0.0,0.0,12,0.00,,,0.00,VWS V14.01,2013-10-08 03:29:00,
2013-10-07 20:34:00,59.2,6.6,29.84,SSE,156,0.0,0.0,12,0.00,,,0.00,VWS V14.01,2013-10-08 03:34:00,
2013-10-07 20:39:00,59.0,6.5,29.84,SSE,156,0.0,0.0,12,0.00,,,0.00,VWS V14.01,2013-10-08 03:39:00,
2013-10-07 20:44:00,59.0,6.5,29.84,South,173,0.0,0.0,12,0.00,,,0.00,VWS V14.01,2013-10-08 03:44:00,
2013-10-07 20:49:00,59.0,6.5,29.84,South,190,0.0,0.0,12,0.00,,,0.00,VWS V14.01,2013-10-08 03:49:00,
2013-10-07 20:54:00,58.8,6.3,29.84,South,190,0.0,0.0,12,0.00,,,0.00,VWS V14.01,2013-10-08 03:54:00,
2013-10-07 21:00:00,58.5,9.5,29.84,South,190,0.0,0.0,14,0.00,,,0.00,VWS V14.01,2013-10-08 04:00:00,
2013-10-07 21:01:00,58.5,9.5,29.84,South,190,0.0,0.0,14,0.00,,,0.00,VWS V14.01,2013-10-08 04:01:00,
2013-10-07 21:02:00,58.5,9.5,29.84,South,190,0.0,0.0,14,0.00,,,0.00,VWS V14.01,2013-10-08 04:02:00,
2013-10-07 21:07:00,58.1,9.2,29.84,South,190,0.0,0.0,14,0.00,,,0.00,VWS V14.01,2013-10-08 04:07:00,
2013-10-07 21:12:00,57.9,9.0,29.84,South,190,0.0,0.0,14,0.00,,,0.00,VWS V14.01,2013-10-08 04:12:00,
2013-10-07 21:17:00,57.6,8.7,29.84,South,190,0.0,0.0,14,0.00,,,0.00,VWS V14.01,2013-10-08 04:17:00,
2013-10-07 21:22:00,57.4,8.6,29.84,South,190,0.0,0.0,14,0.00,,,0.00,VWS V14.01,2013-10-08 04:22:00,
2013-10-07 21:27:00,57.2,8.4,29.84,South,190,0.0,0.0,14,0.00,,,0.00,VWS V14.01,2013-10-08 04:27:00,
2013-10-07 21:32:00,57.2,8.4,29.84,South,190,0.0,0.0,14,0.00,,,0.00,VWS V14.01,2013-10-08 04:32:00,
2013-10-07 21:37:00,57.2,8.4,29.81,South,190,0.0,0.0,14,0.00,,,0.00,VWS V14.01,2013-10-08 04:37:00,
2013-10-07 21:42:00,57.2,8.4,29.81,South,190,0.0,0.0,14,0.00,,,0.00,VWS V14.01,2013-10-08 04:42:00,
2013-10-07 21:47:00,57.2,8.4,29.81,ESE,117,0.0,2.2,14,0.00,,,0.00,VWS V14.01,2013-10-08 04:47:00,
2013-10-07 21:52:00,57.4,8.6,29.84,SE,124,0.0,0.0,14,0.00,,,0.00,VWS V14.01,2013-10-08 04:52:00,
2013-10-07 21:57:00,57.4,8.6,29.84,SE,146,0.0,0.0,14,0.00,,,0.00,VWS V14.01,2013-10-08 04:57:00,
2013-10-07 22:02:00,57.4,8.6,29.84,SSW,203,2.7,2.7,14,0.00,,,0.00,VWS V14.01,2013-10-08 05:02:00,
2013-10-07 22:07:00,57.4,8.6,29.84,SSW,203,0.0,0.0,14,0.00,,,0.00,VWS V14.01,2013-10-08 05:07:00,
2013-10-07 22:12:00,57.4,8.6,29.84,SSW,203,0.0,0.0,14,0.00,,,0.00,VWS V14.01,2013-10-08 05:12:00,
2013-10-07 22:17:00,57.2,8.4,29.84,SSW,203,0.0,0.0,14,0.00,,,0.00,VWS V14.01,2013-10-08 05:17:00,
2013-10-07 22:22:00,57.0,12.7,29.84,SSW,203,0.0,0.0,17,0.00,,,0.00,VWS V14.01,2013-10-08 05:22:00,
2013-10-07 22:27:00,56.8,12.5,29.84,SSW,194,0.0,0.0,17,0.00,,,0.00,VWS V14.01,2013-10-08 05:27:00,
2013-10-07 22:32:00,56.8,12.5,29.84,SSW,194,0.0,0.0,17,0.00,,,0.00,VWS V14.01,2013-10-08 05:32:00,
2013-10-07 22:37:00,56.7,12.4,29.84,South,184,0.0,0.0,17,0.00,,,0.00,VWS V14.01,2013-10-08 05:37:00,
2013-10-07 22:42:00,56.7,12.4,29.84,NNW,327,0.0,0.0,17,0.00,,,0.00,VWS V14.01,2013-10-08 05:42:00,
2013-10-07 22:47:00,56.7,16.1,29.84,WNW,282,0.0,0.0,20,0.00,,,0.00,VWS V14.01,2013-10-08 05:47:00,
2013-10-07 22:52:00,56.7,16.1,29.84,SSE,150,0.0,2.2,20,0.00,,,0.00,VWS V14.01,2013-10-08 05:52:00,
2013-10-07 22:57:00,56.7,16.1,29.84,WSW,252,0.0,2.2,20,0.00,,,0.00,VWS V14.01,2013-10-08 05:57:00,
2013-10-07 23:02:00,56.7,18.3,29.84,SW,216,0.0,0.0,22,0.00,,,0.00,VWS V14.01,2013-10-08 06:02:00,
2013-10-07 23:07:00,56.3,18.0,29.84,SW,217,0.0,0.0,22,0.00,,,0.00,VWS V14.01,2013-10-08 06:07:00,
2013-10-07 23:12:00,56.1,17.8,29.84,SW,217,0.0,0.0,22,0.00,,,0.00,VWS V14.01,2013-10-08 06:12:00,
2013-10-07 23:17:00,55.9,20.6,29.84,SW,217,0.0,0.0,25,0.00,,,0.00,VWS V14.01,2013-10-08 06:17:00,
2013-10-07 23:22:00,55.6,20.3,29.84,SW,217,0.0,0.0,25,0.00,,,0.00,VWS V14.01,2013-10-08 06:22:00,
2013-10-07 23:27:00,55.2,21.0,29.84,SW,217,0.0,0.0,26,0.00,,,0.00,VWS V14.01,2013-10-08 06:27:00,
2013-10-07 23:32:00,55.0,20.8,29.84,SW,217,0.0,0.0,26,0.00,,,0.00,VWS V14.01,2013-10-08 06:32:00,
2013-10-07 23:37:00,54.9,20.6,29.84,SW,216,0.0,0.0,26,0.00,,,0.00,VWS V14.01,2013-10-08 06:37:00,
2013-10-07 23:43:00,54.7,21.4,29.84,SW,216,0.0,0.0,27,0.00,,,0.00,VWS V14.01,2013-10-08 06:43:00,
2013-10-07 23:48:00,54.5,21.2,29.84,SW,217,0.0,0.0,27,0.00,,,0.00,VWS V14.01,2013-10-08 06:48:00,
2013-10-07 23:53:00,54.3,21.9,29.84,SW,217,0.0,0.0,28,0.00,,,0.00,VWS V14.01,2013-10-08 06:53:00,
2013-10-07 23:58:00,54.3,22.8,29.84,SW,217,0.0,0.0,29,0.00,,,0.00,VWS V14.01,2013-10-08 06:58:00,